Location: Eastview
(35.0756°N, 88.5453°W)
Time: 10:03:20
(UTC+00:00)

SL-16 R/B - Pass Details

Date: 22 November 2019
Orbit: 842 x 846 km, 71.0° (Epoch: 14 December)

Event Time Altitude Azimuth Distance (km) Brightness Sun altitude
Rises 23:32:55 0° 184° (S) 3,384 5.6 -10.0°
Reaches altitude 10° 23:35:26 10° 178° (S) 2,453 4.8 -10.5°
Maximum altitude 23:40:48 47° 106° (ESE) 1,101 2.5 -11.5°
Drops below altitude 10° 23:46:12 10° 34° (NNE) 2,470 4.2 -12.6°
Enters shadow 23:46:40 - 32° (NNE) 2,639 4.3 -12.7°
